Location: Arezzo
(43.4170°N, 11.8830°E)
Time: 02:46:34
(UTC+01:00)

STARLINK-2709 - Pass Details

Date: 27 October 2021
Orbit: 546 x 548 km, 53.1° (Epoch: 01 December)

Event Time Altitude Azimuth Distance (km) Brightness Sun altitude
Exits shadow 06:54:21 - 249° (WSW) 1,924 5.9 -9.2°
Reaches altitude 10° 06:54:38 10° 250° (WSW) 1,811 5.7 -9.1°
Maximum altitude 06:58:41 57° 330° (NNW) 649 3.8 -8.4°
Drops below altitude 10° 07:02:46 10° 49° (NE) 1,821 6.9 -7.6°
Sets 07:05:02 0° 54° (NE) 2,716 7.9 -7.2°
